MPEC 2006-T44 : COMET C/2006 T1 (LEVY)

The following Minor Planet Electronic Circular may be linked-to from your own Web pages, but must not otherwise be redistributed electronically.


Read MPEC 2006-T43 Read MPEC 2006-T45


M.P.E.C. 2006-T44                                Issued 2006 Oct. 6, 15:45 UT

     The Minor Planet Electronic Circulars contain information on unusual
         minor planets and routine data on comets.  They are published
   on behalf of Commission 20 of the International Astronomical Union by the
          Minor Planet Center, Smithsonian Astrophysical Observatory,
                          Cambridge, MA 02138, U.S.A.

             Prepared using the Tamkin Foundation Computer Network

                              MPC@CFA.HARVARD.EDU
          URL http://cfa-www.harvard.edu/iau/mpc.html  ISSN 1523-6714

                            COMET C/2006 T1 (LEVY)

Observations:
    CK06T010  C2006 10 03.20929 09 40 18.25 +15 25 07.9          13.4 T ET044J77
    CK06T010  C2006 10 03.21683 09 40 19.98 +15 24 50.8          13.6 T ET044J77
    CK06T010  C2006 10 03.44187 09 41 13.61 +15 16 05.7          12.2 T ET044G92
    CK06T010  C2006 10 03.45944 09 41 17.79 +15 15 23.6          14.5 T ET044G92
    CK06T010  C2006 10 03.47451 09 41 21.37 +15 14 49.1          12.3 T ET044G92
    CK06T010  C2006 10 03.48304 09 41 23.36 +15 14 29.7          12.3 T ET044G92
    CK06T010  C2006 10 03.49265 09 41 25.64 +15 14 07.0          12.2 T ET044G92
    CK06T010  C2006 10 03.50039 09 41 27.46 +15 13 49.0          12.3 T ET044G92
    CK06T010  C2006 10 03.50889 09 41 29.48 +15 13 29.0          12.2 T ET044G92
    CK06T010  C2006 10 03.52064 09 41 32.19 +15 13 00.4          14.2 T ET044G92
    CK06T010  C2006 10 03.52512 09 41 33.29 +15 12 50.9          14.2 T ET044G92
    CK06T010  C2006 10 03.79639 09 42 37.49 +15 02 16.2          11.9 T ET044361
    CK06T010  C2006 10 03.81659 09 42 42.16 +15 01 28.3          11.9 T ET044361
    CK06T010  C2006 10 03.81755 09 42 42.48 +15 01 24.6          11.6 T ET044361
    CK06T010  C2006 10 03.81819 09 42 42.61 +15 01 23.7          11.7 T ET044361
    CK06T010  C2006 10 03.81924 09 42 42.80 +15 01 21.6          11.9 T ET044361
    CK06T010  C2006 10 03.82162 09 42 43.35 +15 01 16.4          12.0 T ET044361
    CK06T010  C2006 10 04.17728 09 44 07.21 +14 47 20.6                 ET044J95
    CK06T010  C2006 10 04.17978 09 44 07.80 +14 47 14.8                 ET044J95
    CK06T010  C2006 10 04.18227 09 44 08.39 +14 47 09.1          13.9 N ET044J95
    CK06T010  C2006 10 04.19112 09 44 10.49 +14 46 47.9          12.2 N ET044J77
    CK06T010  C2006 10 04.19373 09 44 11.09 +14 46 41.4          12.2 N ET044J77
    CK06T010  C2006 10 04.20367 09 44 13.44 +14 46 18.9          12.3 N ET044J77
    CK06T010  C2006 10 04.20477 09 44 13.64 +14 46 16.3          12.3 N ET044J77
    CK06T010  C2006 10 04.36301 09 44 51.01 +14 40 06.4          13.5 N ET044850
    CK06T010  C2006 10 04.37712 09 44 54.32 +14 39 33.0          13.6 N ET044850
    CK06T010  C2006 10 04.39130 09 44 57.66 +14 38 59.8          13.6 N ET044850
    CK06T010  C2006 10 04.40534 09 45 00.91 +14 38 27.2          13.3 N ET044850
    CK06T010  C2006 10 04.40714 09 45 01.21 +14 38 23.8          14.5 T ET044H07
    CK06T010  C2006 10 04.41802 09 45 03.82 +14 37 58.1          12.7 T ET044H07
    CK06T010  C2006 10 04.42899 09 45 06.44 +14 37 32.1          12.5 T ET044H07
    CK06T010  C2006 10 04.46530 09 45 15.01 +14 36 06.7          10.7 T ET044H06
    CK06T010  C2006 10 04.46715 09 45 15.47 +14 36 01.8          10.6 T ET044H06
    CK06T010  C2006 10 04.46904 09 45 15.90 +14 35 57.5          10.7 T ET044H06
    CK06T010  C2006 10 05.37392 09 48 47.47 +14 00 30.9          13.8 N ET044850
    CK06T010  C2006 10 05.38943 09 48 51.07 +13 59 54.4          11.4 T ET044850
    CK06T010  C2006 10 05.40492 09 48 54.66 +13 59 18.0          13.8 N ET044850
    CK06T010  C2006 10 05.42043 09 48 58.28 +13 58 41.4          13.9 N ET044850

Observer details:
361 Sumoto.  Observer S. Nakano.  0.25-m f/4.8 reflector + CCD.
850 Cordell-Lorenz Observatory, Sewanee.  Observers D. T. Durig, E. J. Wilson,
    P. A. Hiller.  0.30-m f/9.7 Schmidt-Cassegrain + CCD.
G92 Jarnac Observatory, Vail.  Observers D. Levy, W. Levy, T. Glinos.  0.64-m
    f/7.2 Ritchey-Chretien + CCD.
H06 RAS Observatory, Mayhill.  Observer M. Suzuki.  0.25-m f/3.4 reflector
    + CCD.
H07 7300 Observatory, Cloudcroft.  Observer W. K. Y. Yeung.
    0.45-m f/3 Schmidt-Cassegrain + CCD.
J77 Golden Hill Observatory, Stourton Caundle.  Observer R. Miles.  0.06-m
    f/5.9 refractor + CCD, 0.28-m f/10 Schmidt-Cassegrain + CCD.
J95 Great Shefford.  Observer P. Birtwhistle.  0.40-m f/6.0 Schmidt-Cassegrain
    + CCD.

Orbital elements:
    C/2006 T1 (Levy)
T 2006 Oct. 8.957 TT                                    MPC
q   1.07060              (2000.0)            P               Q
                   Peri.  181.404       -0.270278       -0.909348
                   Node   284.354       +0.886486       -0.106881
e   1.0            Incl.   19.055       +0.375622       -0.402074
From 78 observations 2006 Oct. 2-5.

Ephemeris:
    C/2006 T1 (Levy)
Date    TT    R. A. (2000) Decl.     Delta      r     Elong.  Phase   m1    m2
2006 10 02    09 35.48   +16 12.2    1.455    1.077    47.7    43.4  11.1
2006 10 12    10 13.68   +09 39.4    1.475    1.072    46.6    42.6  11.1
2006 10 22    10 48.44   +03 10.2    1.512    1.092    46.2    41.1  11.3
2006 11 01    11 20.16   -02 58.4    1.558    1.136    46.7    39.5  11.5
2006 11 11    11 49.19   -08 36.6    1.611    1.201    48.0    37.8  11.8
2006 11 21    12 15.80   -13 40.8    1.664    1.281    50.2    36.3  12.2
2006 12 01    12 40.09   -18 10.7    1.715    1.374    53.2    35.1  12.5

Brian G. Marsden             (C) Copyright 2006 MPC           M.P.E.C. 2006-T44

Read MPEC 2006-T43 Read MPEC 2006-T45


Our Web policy. Index to the CBAT/MPC/ICQ pages.

MPC

Valid HTML 4.01!